Location: Blankensee
(53.5126°N, 14.3055°E)
Time: 18:13:42
(UTC+00:00)

Resurs 1-4 Rocket - Pass Details

Date: 08 August 2020
Orbit: 799 x 815 km, 98.6° (Epoch: 19 September)

Event Time Altitude Azimuth Distance (km) Brightness Sun altitude
Rises 01:03:27 0° 15° (NNE) 3,339 6.9 -16.2°
Reaches altitude 10° 01:05:48 10° 15° (NNE) 2,401 5.8 -16.0°
Maximum altitude 01:11:07 83° 289° (WNW) 817 2.1 -15.6°
Enters shadow 01:14:25 24° 202° (SSW) 1,622 3.1 -15.4°
